Les vidéos Equidia

Discipline Date Nom de la Course Hippodrome Alloc Jockey/Driver Red. Km Dist Corde Ferrure Autostart Class Video
Attelé 2017-05-28 LANGON SON PARDO 5.000 ADR. ESCANDELL 2650 A
Attelé 2017-02-07 DES ROSES CAGNES-SUR-MER 16.000 L. VERRIERE 1'14"70 2150 G A 06
Attelé 2017-01-23 CASTELET MARSEILLE PONT DE VIVAUX 6.000 F. COMTE 1'17"60 2650 G 07
Attelé 2017-01-08 POMPADOUR SAINT GALMIER 12.000 L. VERRIERE 1'18"40 2675 D 04
Attelé 2016-12-02 REYNAUD FLEURS SAINT GALMIER 3.000 F. COMTE 1'15"80 2600 D A 05
Attelé 2016-11-11 OURASI LYON LA SOIE 32.000 L. VERRIERE 1'17"20 2700 D 11
Monté 2016-09-14 GENY COURSES CAVAILLON 20.000 R. VOLLE 1'18"80 2600 D 07
Attelé 2016-09-05 RH-ALP.SECURITE FEURS 6.000 F. COMTE 1'20"20 3500 G 06
Attelé 2016-08-28 MARTINE JEAN CAVAILLON 6.000 F. COMTE 1'18"00 2600 D 07
Attelé 2016-08-21 LEON BERNUSSET CARPENTRAS 23.000 J.L. VERRIERE 1'21"90 2650 D 07
Attelé 2016-07-31 ROCHE DU ROI AIX LES BAINS 6.000 F. COMTE 2700 D AI
Attelé 2016-07-03 CREDIT AGRICOLE SAINT GALMIER 6.000 F. COMTE 1'16"70 2650 D 02
Attelé 2016-06-25 MUSIQUE I NOV' CAVAILLON 6.000 F. COMTE 2600 D AI
Attelé 2016-06-02 L'AQUARIUM NANCY 6.000 F. COMTE 1'18"30 2600 D 04
Attelé 2016-05-20 READY CASH ANGERS EVENTARD 6.000 J. DEBOST 2350 D A NP
Attelé 2016-05-09 BOLLENE SAINT GALMIER 6.000 F. COMTE 1'15"90 2650 D 01
Attelé 2016-04-21 DU TERNOIS LYON-PARILLY 6.000 F. COMTE 1'17"50 2850 G 07
Attelé 2016-04-13 UNAT LYON LA SOIE 8.000 F. COMTE 3250 D AI
Attelé 2016-04-09 GARAGE SERIEYS PARAY-LE-MONIAL 25.000 L. VERRIERE 2625 D
Attelé 2016-01-20 DES ROCHES MARSEILLE PONT DE VIVAUX 6.000 F. COMTE 1'18"30 2650 G 08
Attelé 2015-12-28 DE BLET TOULOUSE 20.000 L. VERRIERE 2950 D AI
Attelé 2015-11-28 M. THEVENON PARIS-VINCENNES 16.000 F. COMTE 2700 G
Attelé 2015-11-11 IBIS BRON EUREX LYON LA SOIE 32.000 L. VERRIERE 2700 D 08
Attelé 2015-10-25 ROTARY CLUB SALON-DE-PROVENCE 6.000 F. COMTE 1'14"80 2300 D A 01
Attelé 2015-10-12 D.M. BERNARD SALON-DE-PROVENCE 5.000 F. COMTE 1'17"70 2950 D 04
Attelé 2015-09-28 STEMP MAGAZINE SAINT GALMIER 6.000 F. COMTE 1'17"90 2650 D 04
Attelé 2015-09-19 CRITER. VITESSE VICHY 8.000 F. COMTE 1'15"80 1609 D A 09
Attelé 2015-09-07 VITAMINE VACAN. FEURS 6.000 F. COMTE 1'17"50 3350 G A 05
Attelé 2015-08-16 FRANCE BLEU CAVAILLON 6.000 F. COMTE 1'17"30 2600 D 02
Attelé 2015-07-22 B. BAYLET HYERES 20.000 F. BOULOT 2650 D A AI
Attelé 2015-07-06 MICHEL LACREVAZ HYERES 22.000 L. VERRIERE 1'17"70 2650 D A 01
Attelé 2015-06-20 ROLAND PAULEAU CAVAILLON 18.000 L. VERRIERE 2525 D A AI
Attelé 2015-06-09 ROSALIA PARIS-VINCENNES 14.000 F. COMTE 2100 G A AI
Attelé 2015-05-26 LANGUEDOC VICHY 8.000 F. COMTE 1'16"70 2150 D A 05
Attelé 2015-05-16 D'AIGUEPERSE VICHY 8.000 F. COMTE 1'17"20 2850 D 03
Attelé 2015-03-15 L'OCCIDENT LYON-PARILLY 28.000 J.L. VERRIERE 1'17"20 2850 G 07
Attelé 2015-02-15 D. DE PROVENCE HYERES 4.000 F. COMTE 1'20"00 2750 D 04
Attelé 2014-12-29 SAINT-LEONARD PARIS-VINCENNES 14000 F. COMTE 2850
Attelé 2014-11-30 TOME DU RAMIER BEAUMONT-DE-LOMAGNE 6.000 F. COMTE 2550 AI
Attelé 2014-11-16 DU POITOU LYON-PARILLY 20.000 L. VERRIERE 1'15"90 2000 A 13
Attelé 2014-10-26 MARCEL BERNARD CAVAILLON 20.000 L. VERRIERE 2575 A
Attelé 2014-10-13 JEAN THENOUX CAVAILLON 5.000 F. COMTE 2600
Attelé 2014-10-06 SELPRO FEURS 6.000 F. COMTE 2050 A
Attelé 2014-09-10 PROV.DEMENAGEME CAVAILLON 20.000 L. VERRIERE 1'15"70 2525 A 04
Attelé 2014-08-07 RENE JAY VICHY SOIR 22.000 F. BOULOT 1'17"80 2800 A 07
Attelé 2014-07-29 ROLAND PAULEAU CAVAILLON 18.000 F. BOULOT 2525 A AI
Attelé 2014-07-20 BEAUMONT AIX LES BAINS 20.000 F. BOULOT 2700 AI
Attelé 2014-06-12 SOURCE INTERMIT VICHY 8.000 F. COMTE 1'16"40 2150 A 04
Attelé 2014-05-17 D'AIGUEPERSE VICHY 8.000 F. COMTE 2850
Attelé 2014-05-08 DE GIMAT BEAUMONT-DE-LOMAGNE 16.000 F. BOULOT 2575
Attelé 2014-04-27 DU FINISTERE LYON-PARILLY 13.000 F. BOULOT 1'16"30 2875 01
Attelé 2014-03-28 DES TOURTEREAUX LYON LA SOIE 6.000 F. COMTE 2700 D
Attelé 2014-02-20 D'AIX LES BAINS SAINT GALMIER 20.000 F. BOULOT 2675 AI
Attelé 2014-02-09 PARAY LE MONIAL LYON LA SOIE 16.000 F. BOULOT 1'18"60 2700 08
Attelé 2014-01-20 SAINTE-GAUBURGE PARIS-VINCENNES 22.000 F. BOULOT 1'17"60 2875 05
Attelé 2014-01-12 PARC DES LANDES LYON LA SOIE 18.000 F. BOULOT 2700